QPF
0.00 0.00 0.00 0.00 0.00 0.00 0.00 0.00 0.00 0.00 0.00 0.00 0.00 0.00 0.00 0.00 0.00 0.00 0.00 0.00 0.00 0.00 0.00 0.00 0.00 0.00 0.00 0.00 0.00 0.00 0.00 0.00 0.00 0.00 0.00 0.00 0.00 0.00 0.00 0.00 0.00 0.00 0.00
0.00 0.00 0.00 0.00 0.00 0.00 0.00 0.00 0.00 0.00 0.00 0.00 0.00 0.00 0.00 0.00 0.00 0.00 0.00 0.00 0.00 0.00 0.00 0.00 0.00 0.00 0.00 0.00 0.00 0.00 0.00 0.00 0.00 0.00 0.00 0.00 0.00 0.00 0.00 0.00 0.00 0.00 0.00
0.00 0.00 0.00 0.00 0.00 0.00 0.00 0.00 0.00 0.00 0.00 0.00 0.00 0.00 0.00 0.00 0.00 0.00 0.00 0.00 0.00 0.00 0.00 0.00 0.00 0.00 0.00 0.00 0.00 0.00 0.00 0.00 0.00 0.00 0.00 0.00 0.00 0.00 0.00 0.00 0.00 0.00 0.00
0.00 0.00 0.00 0.00 0.00 0.00 0.00 0.00 0.00 0.00 0.00 0.00 0.00 0.00 0.00 0.00 0.00 0.00 0.00 0.00 0.00 0.00 0.00 0.00 0.00 0.00 0.00 0.00 0.00 0.00 0.00 0.00 0.00 0.00 0.00 0.00 0.00 0.00 0.00 0.00 0.00 0.00 0.00
0.00 0.00 0.00 0.00 0.00 0.00 0.00 0.00 0.00 0.00 0.00 0.00 0.00 0.00 0.00 0.00 0.00 0.00 0.00 0.00 0.00 0.00 0.00 0.00 0.00 0.00 0.00 0.00 0.00 0.00 0.00 0.00 0.00 0.00 0.00 0.00 0.00 0.00 0.00 0.00 0.00 0.00 0.00
0.01 0.01 0.00 0.00 0.00 0.00 0.00 0.00 0.00 0.00 0.00 0.00 0.00 0.00 0.00 0.00 0.00 0.00 0.00 0.00 0.00 0.00 0.00 0.00 0.00 0.00 0.00 0.00 0.00 0.00 0.00 0.00 0.00 0.00 0.00 0.00 0.00 0.00 0.00 0.00 0.00 0.00 0.00
0.01 0.01 0.01 0.01 0.01 0.00 0.00 0.00 0.00 0.00 0.00 0.00 0.00 0.00 0.00 0.00 0.00 0.00 0.00 0.00 0.00 0.00 0.00 0.00 0.00 0.00 0.00 0.00 0.00 0.00 0.00 0.00 0.00 0.00 0.00 0.00 0.00 0.00 0.00 0.00 0.00 0.00 0.00
0.01 0.01 0.01 0.01 0.01 0.01 0.01 0.01 0.00 0.00 0.00 0.00 0.00 0.00 0.00 0.00 0.00 0.00 0.00 0.00 0.00 0.00 0.00 0.00 0.00 0.00 0.00 0.00 0.00 0.00 0.00 0.00 0.00 0.00 0.00 0.00 0.00 0.00 0.00 0.00 0.00 0.00 0.00
0.00 0.01 0.01 0.01 0.01 0.02 0.02 0.02 0.02 0.01 0.01 0.01 0.00 0.00 0.00 0.00 0.00 0.00 0.00 0.00 0.00 0.00 0.00 0.00 0.00 0.00 0.00 0.00 0.00 0.00 0.00 0.00 0.00 0.00 0.00 0.00 0.00 0.00 0.00 0.00 0.00 0.01 0.01
0.00 0.01 0.01 0.02 0.02 0.02 0.03 0.05 0.05 0.04 0.04 0.02 0.02 0.01 0.01 0.00 0.00 0.00 0.00 0.00 0.00 0.00 0.00 0.00 0.00 0.00 0.00 0.00 0.00 0.00 0.00 0.00 0.00 0.00 0.00 0.00 0.00 0.00 0.00 0.00 0.00 0.01 0.01
0.01 0.01 0.02 0.02 0.02 0.02 0.04 0.06 0.08 0.09 0.08 0.07 0.05 0.05 0.04 0.03 0.01 0.01 0.01 0.01 0.01 0.01 0.01 0.00 0.00 0.00 0.00 0.00 0.00 0.00 0.00 0.00 0.00 0.00 0.00 0.00 0.00 0.00 0.00 0.00 0.00 0.01 0.01
0.01 0.02 0.03 0.03 0.04 0.04 0.04 0.07 0.10 0.12 0.15 0.14 0.11 0.08 0.08 0.07 0.06 0.05 0.03 0.02 0.02 0.02 0.02 0.02 0.01 0.01 0.01 0.01 0.00 0.00 0.00 0.00 0.00 0.00 0.00 0.00 0.00 0.00 0.00 0.00 0.00 0.00 0.00
0.01 0.01 0.02 0.03 0.04 0.05 0.06 0.08 0.11 0.13 0.17 0.18 0.17 0.15 0.13 0.11 0.09 0.09 0.09 0.07 0.05 0.05 0.05 0.05 0.04 0.03 0.03 0.03 0.02 0.01 0.01 0.01 0.01 0.01 0.01 0.01 0.00 0.00 0.00 0.00 0.00 0.00 0.00
0.01 0.01 0.02 0.03 0.04 0.06 0.08 0.10 0.12 0.13 0.16 0.17 0.18 0.18 0.17 0.15 0.13 0.14 0.15 0.16 0.16 0.14 0.13 0.12 0.10 0.10 0.09 0.09 0.08 0.06 0.04 0.03 0.02 0.02 0.01 0.01 0.00 0.00 0.00 0.00 0.00 0.00 0.00
0.01 0.01 0.02 0.02 0.04 0.06 0.08 0.10 0.11 0.12 0.14 0.16 0.17 0.19 0.19 0.18 0.18 0.19 0.21 0.24 0.28 0.27 0.23 0.21 0.20 0.19 0.18 0.15 0.11 0.07 0.04 0.03 0.02 0.01 0.01 0.01 0.00 0.00 0.00 0.00 0.00 0.00 0.00
0.00 0.00 0.01 0.01 0.02 0.04 0.05 0.07 0.08 0.10 0.12 0.12 0.13 0.15 0.16 0.16 0.17 0.20 0.24 0.28 0.33 0.37 0.33 0.26 0.20 0.17 0.15 0.12 0.09 0.06 0.04 0.03 0.02 0.01 0.01 0.00 0.00 0.00 0.00 0.00 0.00 0.00 0.00
0.00 0.00 0.00 0.01 0.01 0.01 0.02 0.03 0.04 0.05 0.07 0.08 0.09 0.10 0.11 0.13 0.15 0.18 0.21 0.25 0.28 0.30 0.30 0.24 0.19 0.16 0.13 0.11 0.08 0.05 0.03 0.02 0.01 0.00 0.00 0.00 0.00 0.00 0.00 0.00 0.00 0.00 0.00
0.00 0.00 0.00 0.00 0.00 0.01 0.01 0.01 0.02 0.03 0.04 0.05 0.06 0.07 0.08 0.10 0.12 0.14 0.18 0.21 0.22 0.22 0.21 0.18 0.16 0.13 0.10 0.07 0.05 0.03 0.01 0.00 0.00 0.00 0.00 0.00 0.00 0.00 0.00 0.00 0.00 0.00 0.00
0.00 0.00 0.01 0.01 0.01 0.01 0.01 0.01 0.02 0.03 0.03 0.04 0.05 0.06 0.07 0.09 0.12 0.14 0.15 0.15 0.14 0.13 0.12 0.10 0.09 0.08 0.06 0.05 0.03 0.02 0.01 0.00 0.00 0.00 0.00 0.00 0.00 0.00 0.00 0.00 0.00 0.00 0.00
0.00 0.00 0.01 0.01 0.01 0.01 0.02 0.02 0.03 0.04 0.05 0.06 0.07 0.09 0.10 0.10 0.11 0.11 0.11 0.11 0.10 0.09 0.08 0.07 0.06 0.05 0.04 0.03 0.02 0.01 0.00 0.00 0.00 0.00 0.00 0.00 0.00 0.00 0.00 0.00 0.00 0.00 0.00
0.00 0.00 0.01 0.02 0.03 0.04 0.06 0.07 0.07 0.08 0.10 0.12 0.13 0.13 0.14 0.14 0.14 0.12 0.10 0.09 0.07 0.06 0.05 0.04 0.03 0.02 0.02 0.01 0.01 0.00 0.00 0.00 0.00 0.00 0.00 0.00 0.00 0.00 0.00 0.00 0.00 0.00 0.00
0.01 0.02 0.02 0.03 0.06 0.08 0.11 0.10 0.10 0.10 0.12 0.13 0.13 0.13 0.12 0.11 0.09 0.08 0.07 0.05 0.04 0.03 0.03 0.02 0.02 0.01 0.01 0.01 0.00 0.00 0.00 0.00 0.00 0.00 0.00 0.00 0.00 0.00 0.00 0.00 0.00 0.00 0.00
0.03 0.04 0.05 0.08 0.09 0.09 0.09 0.09 0.09 0.08 0.09 0.09 0.09 0.09 0.08 0.07 0.06 0.05 0.04 0.02 0.02 0.01 0.01 0.01 0.00 0.00 0.00 0.00 0.00 0.00 0.00 0.00 0.00 0.00 0.00 0.00 0.00 0.00 0.00 0.00 0.00 0.00 0.00
0.03 0.05 0.06 0.08 0.10 0.11 0.09 0.08 0.08 0.07 0.07 0.07 0.07 0.06 0.04 0.03 0.02 0.01 0.01 0.01 0.00 0.00 0.00 0.00 0.00 0.00 0.00 0.00 0.00 0.00 0.00 0.00 0.00 0.00 0.00 0.00 0.00 0.00 0.00 0.00 0.00 0.00 0.00
0.02 0.03 0.04 0.05 0.06 0.07 0.07 0.05 0.04 0.04 0.04 0.03 0.02 0.02 0.01 0.01 0.01 0.00 0.00 0.00 0.00 0.00 0.00 0.00 0.00 0.00 0.00 0.00 0.00 0.00 0.00 0.00 0.00 0.00 0.00 0.00 0.00 0.00 0.00 0.00 0.00 0.00 0.00
0.01 0.01 0.02 0.02 0.02 0.03 0.03 0.02 0.02 0.01 0.01 0.01 0.00 0.00 0.00 0.00 0.00 0.00 0.00 0.00 0.00 0.00 0.00 0.00 0.00 0.00 0.00 0.00 0.00 0.00 0.00 0.00 0.00 0.00 0.00 0.00 0.00 0.00 0.00 0.00 0.00 0.00 0.00
MSLP
1017.85 1018.11 1018.36 1018.60 1018.85 1019.10 1019.35 1019.60 1019.81 1019.98 1020.11 1020.19 1020.23 1020.27 1020.33 1020.43 1020.59 1020.82 1021.12 1021.46 1021.81 1022.17 1022.49 1022.78 1023.03 1023.23 1023.40 1023.55 1023.68 1023.79 1023.89 1023.97 1024.03 1024.07 1024.10 1024.12 1024.15 1024.18 1024.22 1024.26 1024.29 1024.31 1024.31
1017.41 1017.64 1017.86 1018.10 1018.35 1018.63 1018.91 1019.19 1019.44 1019.66 1019.83 1019.96 1020.05 1020.13 1020.21 1020.33 1020.49 1020.71 1020.99 1021.30 1021.64 1021.99 1022.32 1022.64 1022.92 1023.18 1023.40 1023.59 1023.75 1023.89 1023.99 1024.07 1024.12 1024.16 1024.18 1024.21 1024.24 1024.28 1024.32 1024.37 1024.41 1024.44 1024.44
1016.97 1017.16 1017.37 1017.60 1017.87 1018.16 1018.47 1018.79 1019.09 1019.36 1019.59 1019.77 1019.92 1020.04 1020.16 1020.29 1020.44 1020.64 1020.88 1021.15 1021.45 1021.77 1022.09 1022.42 1022.73 1023.02 1023.29 1023.52 1023.73 1023.89 1024.02 1024.10 1024.16 1024.19 1024.22 1024.25 1024.28 1024.32 1024.37 1024.42 1024.46 1024.48 1024.49
1016.55 1016.72 1016.91 1017.15 1017.43 1017.75 1018.09 1018.44 1018.79 1019.11 1019.39 1019.63 1019.84 1020.00 1020.15 1020.29 1020.43 1020.59 1020.78 1020.99 1021.23 1021.50 1021.79 1022.10 1022.42 1022.74 1023.05 1023.33 1023.57 1023.78 1023.93 1024.05 1024.12 1024.17 1024.20 1024.23 1024.27 1024.31 1024.35 1024.39 1024.43 1024.45 1024.44
1016.16 1016.32 1016.52 1016.77 1017.06 1017.40 1017.76 1018.14 1018.52 1018.88 1019.22 1019.51 1019.76 1019.97 1020.14 1020.29 1020.41 1020.53 1020.66 1020.80 1020.97 1021.17 1021.41 1021.69 1022.00 1022.34 1022.67 1023.00 1023.29 1023.54 1023.74 1023.89 1024.00 1024.07 1024.13 1024.17 1024.21 1024.25 1024.29 1024.32 1024.34 1024.34 1024.32
1015.80 1015.96 1016.17 1016.43 1016.73 1017.08 1017.46 1017.86 1018.25 1018.64 1019.00 1019.33 1019.62 1019.86 1020.06 1020.21 1020.32 1020.40 1020.47 1020.55 1020.65 1020.78 1020.97 1021.21 1021.51 1021.84 1022.20 1022.56 1022.89 1023.19 1023.44 1023.64 1023.79 1023.90 1023.98 1024.05 1024.10 1024.14 1024.17 1024.19 1024.19 1024.17 1024.14
1015.42 1015.60 1015.82 1016.09 1016.40 1016.75 1017.13 1017.52 1017.91 1018.30 1018.67 1019.03 1019.34 1019.61 1019.83 1019.99 1020.10 1020.16 1020.19 1020.22 1020.26 1020.34 1020.49 1020.70 1020.97 1021.31 1021.68 1022.06 1022.43 1022.77 1023.07 1023.32 1023.51 1023.67 1023.78 1023.87 1023.94 1023.99 1024.01 1024.02 1024.00 1023.96 1023.91
1015.01 1015.20 1015.43 1015.71 1016.01 1016.35 1016.70 1017.07 1017.44 1017.81 1018.18 1018.53 1018.86 1019.15 1019.39 1019.57 1019.69 1019.76 1019.78 1019.79 1019.82 1019.88 1020.00 1020.20 1020.47 1020.80 1021.19 1021.59 1021.98 1022.35 1022.69 1022.97 1023.20 1023.39 1023.54 1023.65 1023.74 1023.80 1023.82 1023.82 1023.79 1023.74 1023.67
1014.56 1014.75 1014.98 1015.24 1015.53 1015.84 1016.15 1016.47 1016.80 1017.13 1017.47 1017.81 1018.14 1018.45 1018.71 1018.93 1019.09 1019.19 1019.25 1019.29 1019.33 1019.42 1019.56 1019.77 1020.05 1020.40 1020.79 1021.21 1021.62 1022.00 1022.35 1022.64 1022.90 1023.10 1023.27 1023.41 1023.51 1023.58 1023.61 1023.61 1023.57 1023.51 1023.43
1014.09 1014.26 1014.47 1014.71 1014.96 1015.22 1015.47 1015.73 1016.00 1016.28 1016.58 1016.90 1017.22 1017.54 1017.83 1018.09 1018.31 1018.47 1018.60 1018.71 1018.83 1018.98 1019.18 1019.45 1019.77 1020.15 1020.56 1020.98 1021.39 1021.77 1022.10 1022.39 1022.64 1022.84 1023.02 1023.16 1023.27 1023.34 1023.38 1023.39 1023.35 1023.29 1023.21
1013.63 1013.78 1013.96 1014.15 1014.35 1014.54 1014.73 1014.92 1015.11 1015.33 1015.58 1015.86 1016.17 1016.50 1016.82 1017.13 1017.41 1017.66 1017.89 1018.11 1018.34 1018.60 1018.90 1019.25 1019.64 1020.07 1020.50 1020.93 1021.33 1021.68 1021.99 1022.24 1022.45 1022.63 1022.79 1022.92 1023.02 1023.10 1023.15 1023.17 1023.14 1023.09 1023.01
1013.27 1013.38 1013.51 1013.65 1013.78 1013.90 1014.01 1014.11 1014.24 1014.39 1014.58 1014.82 1015.11 1015.43 1015.78 1016.14 1016.49 1016.84 1017.18 1017.53 1017.89 1018.28 1018.71 1019.16 1019.64 1020.13 1020.60 1021.03 1021.41 1021.73 1021.99 1022.19 1022.35 1022.48 1022.59 1022.69 1022.79 1022.86 1022.91 1022.94 1022.93 1022.89 1022.83
1013.08 1013.14 1013.21 1013.28 1013.33 1013.37 1013.40 1013.44 1013.49 1013.57 1013.71 1013.91 1014.17 1014.49 1014.85 1015.24 1015.65 1016.09 1016.54 1017.01 1017.51 1018.03 1018.59 1019.16 1019.74 1020.29 1020.79 1021.23 1021.59 1021.87 1022.07 1022.20 1022.30 1022.36 1022.43 1022.49 1022.55 1022.61 1022.67 1022.70 1022.71 1022.68 1022.63
1013.10 1013.11 1013.11 1013.11 1013.10 1013.06 1013.02 1012.98 1012.97 1013.00 1013.09 1013.25 1013.48 1013.77 1014.13 1014.55 1015.00 1015.50 1016.03 1016.60 1017.22 1017.86 1018.53 1019.21 1019.87 1020.47 1021.01 1021.46 1021.79 1022.03 1022.17 1022.24 1022.27 1022.27 1022.27 1022.28 1022.31 1022.35 1022.40 1022.43 1022.45 1022.44 1022.40
1013.38 1013.33 1013.27 1013.20 1013.12 1013.02 1012.92 1012.83 1012.77 1012.75 1012.80 1012.93 1013.12 1013.40 1013.74 1014.15 1014.62 1015.14 1015.73 1016.36 1017.05 1017.77 1018.52 1019.27 1019.98 1020.64 1021.19 1021.64 1021.96 1022.16 1022.25 1022.26 1022.22 1022.15 1022.09 1022.05 1022.04 1022.05 1022.08 1022.12 1022.14 1022.14 1022.11
1013.89 1013.79 1013.67 1013.55 1013.41 1013.26 1013.12 1012.99 1012.91 1012.87 1012.89 1012.99 1013.16 1013.41 1013.72 1014.11 1014.56 1015.08 1015.67 1016.31 1017.02 1017.78 1018.55 1019.33 1020.07 1020.73 1021.29 1021.72 1022.03 1022.19 1022.25 1022.21 1022.11 1021.99 1021.88 1021.79 1021.74 1021.71 1021.72 1021.74 1021.75 1021.75 1021.73
1014.60 1014.45 1014.29 1014.12 1013.94 1013.77 1013.61 1013.47 1013.38 1013.34 1013.36 1013.44 1013.59 1013.81 1014.09 1014.44 1014.85 1015.33 1015.87 1016.49 1017.16 1017.89 1018.64 1019.39 1020.10 1020.74 1021.27 1021.69 1021.96 1022.11 1022.13 1022.06 1021.93 1021.77 1021.62 1021.48 1021.39 1021.33 1021.30 1021.29 1021.29 1021.28 1021.25
1015.42 1015.25 1015.05 1014.86 1014.66 1014.48 1014.32 1014.20 1014.12 1014.10 1014.12 1014.21 1014.35 1014.54 1014.79 1015.08 1015.44 1015.85 1016.32 1016.86 1017.46 1018.10 1018.77 1019.45 1020.09 1020.67 1021.16 1021.54 1021.78 1021.91 1021.91 1021.83 1021.68 1021.50 1021.31 1021.15 1021.00 1020.90 1020.83 1020.78 1020.75 1020.71 1020.68
1016.29 1016.10 1015.90 1015.69 1015.50 1015.33 1015.20 1015.11 1015.06 1015.06 1015.11 1015.20 1015.34 1015.51 1015.72 1015.97 1016.25 1016.58 1016.96 1017.40 1017.88 1018.41 1018.96 1019.53 1020.07 1020.57 1020.98 1021.31 1021.52 1021.62 1021.62 1021.54 1021.38 1021.20 1020.99 1020.80 1020.62 1020.47 1020.34 1020.24 1020.16 1020.09 1020.03
1017.15 1016.95 1016.76 1016.57 1016.40 1016.26 1016.16 1016.10 1016.09 1016.12 1016.20 1016.30 1016.44 1016.60 1016.78 1016.97 1017.19 1017.44 1017.72 1018.04 1018.39 1018.79 1019.20 1019.63 1020.06 1020.44 1020.78 1021.04 1021.22 1021.30 1021.30 1021.23 1021.08 1020.90 1020.69 1020.47 1020.26 1020.06 1019.87 1019.71 1019.57 1019.45 1019.35
1017.95 1017.78 1017.61 1017.45 1017.31 1017.21 1017.15 1017.13 1017.15 1017.20 1017.29 1017.41 1017.54 1017.68 1017.83 1017.99 1018.14 1018.31 1018.49 1018.70 1018.93 1019.19 1019.46 1019.76 1020.05 1020.33 1020.58 1020.78 1020.92 1020.99 1021.00 1020.94 1020.82 1020.65 1020.44 1020.21 1019.97 1019.72 1019.47 1019.25 1019.04 1018.85 1018.68
1018.69 1018.56 1018.43 1018.31 1018.21 1018.14 1018.11 1018.11 1018.15 1018.22 1018.31 1018.42 1018.54 1018.66 1018.78 1018.89 1019.00 1019.10 1019.20 1019.30 1019.42 1019.56 1019.71 1019.88 1020.06 1020.24 1020.41 1020.55 1020.67 1020.74 1020.75 1020.72 1020.63 1020.48 1020.28 1020.04 1019.77 1019.48 1019.18 1018.88 1018.59 1018.33 1018.10
1019.37 1019.28 1019.19 1019.12 1019.06 1019.02 1019.01 1019.02 1019.06 1019.12 1019.20 1019.28 1019.37 1019.46 1019.54 1019.61 1019.67 1019.72 1019.75 1019.79 1019.82 1019.86 1019.91 1019.98 1020.07 1020.17 1020.28 1020.38 1020.48 1020.55 1020.59 1020.58 1020.51 1020.39 1020.21 1019.97 1019.68 1019.36 1019.00 1018.63 1018.27 1017.94 1017.63
1019.99 1019.95 1019.91 1019.87 1019.84 1019.82 1019.81 1019.81 1019.83 1019.86 1019.90 1019.95 1019.99 1020.04 1020.08 1020.11 1020.13 1020.14 1020.13 1020.11 1020.08 1020.06 1020.05 1020.05 1020.07 1020.12 1020.19 1020.27 1020.35 1020.43 1020.49 1020.51 1020.48 1020.39 1020.22 1019.99 1019.69 1019.33 1018.93 1018.51 1018.09 1017.67 1017.29
1020.55 1020.55 1020.55 1020.54 1020.52 1020.51 1020.49 1020.47 1020.45 1020.43 1020.42 1020.42 1020.41 1020.41 1020.41 1020.41 1020.39 1020.37 1020.33 1020.28 1020.22 1020.16 1020.11 1020.08 1020.07 1020.08 1020.13 1020.20 1020.29 1020.37 1020.45 1020.49 1020.48 1020.41 1020.26 1020.04 1019.73 1019.36 1018.93 1018.47 1017.99 1017.52 1017.08
1021.04 1021.08 1021.10 1021.10 1021.10 1021.07 1021.03 1020.98 1020.92 1020.85 1020.79 1020.72 1020.67 1020.62 1020.58 1020.54 1020.50 1020.46 1020.40 1020.34 1020.27 1020.19 1020.13 1020.08 1020.05 1020.06 1020.09 1020.16 1020.25 1020.34 1020.42 1020.48 1020.48 1020.42 1020.28 1020.06 1019.75 1019.37 1018.92 1018.44 1017.93 1017.42 1016.92
Thickness
5697 5695 5692 5689 5686 5684 5682 5679 5677 5676 5674 5673 5671 5669 5667 5664 5662 5659 5654 5650 5646 5643 5639 5636 5633 5631 5629 5627 5624 5622 5620 5618 5617 5615 5614 5612 5612 5611 5610 5610 5610 5609 5609
5695 5692 5690 5688 5685 5683 5680 5677 5675 5673 5671 5669 5666 5664 5663 5660 5658 5655 5651 5646 5642 5639 5635 5632 5630 5627 5624 5622 5619 5617 5615 5612 5611 5609 5608 5606 5605 5604 5604 5603 5603 5602 5602
5692 5689 5687 5685 5683 5680 5677 5674 5672 5669 5667 5664 5661 5659 5657 5656 5654 5652 5647 5643 5639 5635 5631 5628 5625 5622 5620 5617 5614 5612 5609 5607 5605 5603 5602 5600 5599 5598 5597 5597 5596 5596 5596
5689 5686 5684 5681 5679 5676 5673 5670 5667 5664 5661 5658 5655 5653 5652 5650 5649 5647 5644 5640 5635 5631 5627 5624 5621 5618 5615 5612 5609 5606 5604 5602 5599 5598 5596 5595 5593 5592 5592 5591 5590 5590 5590
5686 5683 5681 5678 5675 5672 5669 5666 5662 5658 5654 5651 5648 5647 5645 5644 5642 5640 5639 5636 5633 5628 5624 5620 5616 5613 5610 5607 5604 5601 5598 5596 5594 5592 5590 5589 5588 5586 5586 5585 5585 5584 5584
5682 5680 5677 5674 5671 5667 5664 5660 5656 5653 5649 5645 5642 5639 5638 5636 5635 5634 5633 5631 5628 5625 5620 5616 5612 5608 5605 5601 5598 5596 5592 5590 5588 5586 5585 5583 5582 5580 5579 5579 5578 5578 5578
5677 5675 5672 5669 5666 5663 5660 5656 5651 5646 5641 5638 5630 5627 5627 5628 5627 5627 5626 5624 5622 5619 5616 5612 5607 5604 5600 5596 5592 5589 5586 5583 5581 5579 5578 5576 5575 5574 5573 5572 5571 5571 5571
5670 5668 5666 5663 5660 5656 5653 5650 5646 5640 5635 5631 5623 5614 5611 5613 5618 5620 5619 5617 5616 5614 5610 5607 5603 5599 5595 5590 5586 5582 5579 5576 5574 5572 5570 5568 5567 5566 5565 5564 5564 5564 5563
5666 5662 5659 5656 5654 5650 5647 5644 5640 5634 5629 5624 5622 5615 5608 5609 5608 5609 5611 5611 5609 5607 5604 5601 5597 5593 5590 5585 5580 5575 5571 5568 5566 5564 5562 5560 5558 5557 5556 5556 5555 5555 5555
5663 5659 5655 5651 5647 5643 5640 5637 5633 5628 5623 5617 5613 5613 5612 5610 5602 5597 5599 5600 5599 5598 5596 5593 5589 5586 5582 5578 5573 5568 5563 5559 5556 5554 5553 5551 5549 5548 5547 5546 5546 5546 5546
5658 5655 5651 5646 5641 5637 5633 5629 5626 5621 5617 5612 5606 5603 5600 5597 5597 5590 5585 5586 5586 5586 5585 5582 5579 5576 5572 5568 5564 5559 5554 5549 5546 5544 5542 5540 5539 5538 5537 5536 5535 5535 5534
5649 5648 5645 5640 5636 5631 5626 5622 5617 5613 5609 5605 5600 5595 5592 5589 5588 5585 5580 5574 5572 5571 5570 5569 5567 5564 5560 5556 5552 5548 5543 5539 5536 5533 5531 5528 5527 5526 5525 5524 5523 5523 5522
5637 5637 5635 5632 5628 5624 5619 5613 5607 5603 5599 5594 5591 5587 5584 5583 5581 5579 5574 5566 5559 5554 5553 5552 5551 5549 5547 5542 5538 5534 5529 5526 5523 5521 5519 5517 5515 5513 5512 5510 5510 5509 5509
5626 5625 5623 5621 5617 5613 5608 5602 5596 5592 5587 5582 5579 5575 5572 5570 5568 5568 5565 5557 5545 5539 5537 5537 5535 5533 5532 5528 5523 5519 5515 5512 5510 5508 5506 5504 5502 5500 5499 5497 5496 5496 5495
5614 5612 5610 5607 5603 5598 5593 5587 5582 5577 5572 5568 5564 5560 5556 5554 5552 5552 5551 5550 5545 5536 5530 5525 5520 5519 5518 5513 5510 5505 5501 5499 5497 5495 5493 5491 5489 5487 5485 5484 5483 5482 5481
5599 5597 5593 5589 5584 5579 5573 5568 5563 5559 5553 5549 5546 5542 5539 5536 5534 5533 5533 5533 5533 5531 5525 5516 5509 5507 5503 5499 5496 5492 5489 5486 5484 5482 5480 5478 5477 5475 5473 5471 5470 5468 5467
5583 5579 5575 5570 5564 5558 5552 5546 5541 5537 5533 5528 5525 5522 5519 5517 5515 5514 5514 5514 5514 5514 5510 5500 5496 5492 5489 5485 5481 5478 5475 5472 5470 5468 5466 5465 5463 5462 5460 5457 5455 5454 5452
5566 5562 5557 5552 5545 5539 5532 5525 5520 5515 5511 5507 5504 5502 5499 5498 5497 5496 5496 5497 5497 5497 5495 5489 5483 5479 5475 5471 5468 5465 5462 5459 5456 5454 5453 5451 5450 5448 5446 5443 5441 5439 5437
5549 5544 5539 5533 5527 5520 5513 5507 5501 5497 5493 5489 5486 5483 5481 5480 5479 5479 5479 5479 5480 5481 5480 5477 5472 5467 5463 5459 5455 5453 5449 5445 5443 5441 5439 5438 5436 5433 5431 5429 5426 5423 5421
5533 5528 5523 5517 5511 5504 5498 5492 5486 5481 5476 5472 5469 5467 5466 5465 5464 5464 5464 5464 5465 5466 5465 5463 5459 5455 5450 5447 5443 5439 5434 5431 5428 5427 5425 5422 5420 5417 5415 5413 5410 5407 5404
5520 5514 5509 5504 5498 5492 5486 5480 5474 5469 5464 5460 5456 5454 5453 5452 5452 5452 5452 5451 5452 5451 5451 5448 5445 5441 5438 5434 5429 5426 5420 5416 5413 5412 5410 5405 5403 5400 5396 5394 5391 5389 5387
5506 5502 5497 5492 5486 5481 5475 5470 5464 5459 5454 5450 5446 5444 5442 5442 5442 5442 5442 5441 5441 5440 5437 5435 5432 5428 5424 5420 5416 5412 5406 5400 5396 5396 5392 5388 5384 5382 5379 5377 5375 5374 5372
5494 5489 5484 5480 5475 5469 5464 5460 5455 5449 5445 5441 5438 5436 5434 5433 5431 5431 5431 5431 5430 5429 5427 5423 5419 5415 5411 5408 5403 5397 5391 5384 5379 5378 5375 5373 5370 5367 5364 5362 5360 5359 5358
5483 5478 5473 5469 5464 5460 5456 5451 5446 5442 5438 5435 5431 5429 5427 5425 5425 5423 5422 5421 5419 5418 5416 5413 5408 5404 5400 5396 5390 5384 5377 5372 5367 5363 5360 5356 5356 5354 5351 5349 5347 5346 5345
5473 5469 5464 5459 5455 5451 5448 5444 5440 5436 5432 5428 5426 5423 5421 5419 5418 5417 5415 5412 5410 5408 5406 5403 5399 5394 5390 5385 5379 5371 5364 5356 5351 5348 5345 5341 5341 5340 5339 5338 5336 5335 5333
5465 5461 5456 5452 5448 5444 5442 5438 5435 5430 5426 5423 5420 5417 5415 5413 5412 5410 5406 5403 5400 5397 5394 5390 5387 5382 5377 5371 5366 5359 5350 5340 5334 5331 5330 5326 5323 5322 5325 5327 5325 5323 5321